Time,TemperatureF,DewpointF,PressureIn,WindDirection,WindDirectionDegrees,WindSpeedMPH,WindSpeedGustMPH,Humidity,HourlyPrecipIn,Conditions,Clouds,dailyrainin,SolarRadiationWatts/m^2,SoftwareType,DateUTC
2013-09-15 00:04:00,51.5,48.0,30.10,ENE,77,0.0,0.0,86,0.00,,,0.01,0,weatherlink.com 1.10,2013-09-15 04:04:00,
2013-09-15 00:19:00,51.4,47.0,30.10,ENE,77,0.0,0.0,85,0.00,,,0.01,0,weatherlink.com 1.10,2013-09-15 04:19:00,
2013-09-15 00:34:00,51.4,47.0,30.10,ENE,77,0.0,0.0,85,0.00,,,0.01,0,weatherlink.com 1.10,2013-09-15 04:34:00,
2013-09-15 00:49:00,51.3,47.0,30.10,ENE,77,0.0,0.0,85,0.00,,,0.01,0,weatherlink.com 1.10,2013-09-15 04:49:00,
2013-09-15 01:04:00,51.0,47.0,30.09,ENE,77,0.0,0.0,86,0.00,,,0.01,0,weatherlink.com 1.10,2013-09-15 05:04:00,
2013-09-15 01:19:00,50.7,47.0,30.10,ENE,77,0.0,0.0,86,0.00,,,0.01,0,weatherlink.com 1.10,2013-09-15 05:19:00,
2013-09-15 01:34:00,50.6,47.0,30.09,ENE,77,0.0,0.0,87,0.00,,,0.01,0,weatherlink.com 1.10,2013-09-15 05:34:00,
2013-09-15 01:49:00,50.4,46.0,30.09,ENE,77,0.0,0.0,85,0.00,,,0.01,0,weatherlink.com 1.10,2013-09-15 05:49:00,
2013-09-15 02:04:00,50.3,46.0,30.09,ENE,77,0.0,0.0,86,0.00,,,0.01,0,weatherlink.com 1.10,2013-09-15 06:04:00,
2013-09-15 02:19:00,50.2,46.0,30.09,ENE,77,0.0,0.0,86,0.00,,,0.01,0,weatherlink.com 1.10,2013-09-15 06:19:00,
2013-09-15 02:34:00,50.0,47.0,30.09,ENE,77,0.0,0.0,89,0.00,,,0.01,0,weatherlink.com 1.10,2013-09-15 06:34:00,
2013-09-15 02:49:00,49.8,46.0,30.10,ENE,77,0.0,0.0,85,0.00,,,0.01,0,weatherlink.com 1.10,2013-09-15 06:49:00,
2013-09-15 03:04:00,49.6,45.0,30.10,ENE,77,0.0,0.0,85,0.00,,,0.01,0,weatherlink.com 1.10,2013-09-15 07:04:00,
2013-09-15 03:19:00,49.4,45.0,30.10,ENE,77,0.0,0.0,85,0.00,,,0.01,0,weatherlink.com 1.10,2013-09-15 07:19:00,
2013-09-15 03:34:00,49.8,45.0,30.10,ENE,77,0.0,0.0,82,0.00,,,0.00,0,weatherlink.com 1.10,2013-09-15 07:34:00,
2013-09-15 03:49:00,50.3,45.0,30.10,ENE,77,0.0,0.0,82,0.00,,,0.00,0,weatherlink.com 1.10,2013-09-15 07:49:00,
2013-09-15 04:04:00,50.4,45.0,30.10,ENE,77,0.0,0.0,82,0.00,,,0.00,0,weatherlink.com 1.10,2013-09-15 08:04:00,
2013-09-15 04:19:00,49.8,46.0,30.10,ENE,77,0.0,0.0,85,0.00,,,0.00,0,weatherlink.com 1.10,2013-09-15 08:19:00,
2013-09-15 04:34:00,49.5,45.0,30.10,ENE,77,0.0,0.0,83,0.00,,,0.00,0,weatherlink.com 1.10,2013-09-15 08:34:00,
2013-09-15 04:49:00,49.9,45.0,30.10,ENE,77,0.0,0.0,82,0.00,,,0.00,0,weatherlink.com 1.10,2013-09-15 08:49:00,
2013-09-15 05:04:00,50.1,45.0,30.10,ENE,77,0.0,0.0,83,0.00,,,0.00,0,weatherlink.com 1.10,2013-09-15 09:04:00,
2013-09-15 05:19:00,49.9,45.0,30.09,ENE,77,0.0,0.0,83,0.00,,,0.00,0,weatherlink.com 1.10,2013-09-15 09:19:00,
2013-09-15 05:34:00,49.7,44.0,30.10,ENE,77,0.0,0.0,82,0.00,,,0.00,0,weatherlink.com 1.10,2013-09-15 09:34:00,
2013-09-15 05:49:00,50.0,45.0,30.10,ENE,77,0.0,0.0,82,0.00,,,0.00,0,weatherlink.com 1.10,2013-09-15 09:49:00,
2013-09-15 06:04:00,49.9,45.0,30.10,ENE,77,0.0,0.0,82,0.00,,,0.00,0,weatherlink.com 1.10,2013-09-15 10:04:00,
2013-09-15 06:19:00,49.3,44.0,30.10,ENE,77,0.0,0.0,82,0.00,,,0.00,0,weatherlink.com 1.10,2013-09-15 10:19:00,
2013-09-15 06:34:00,48.8,45.0,30.10,ENE,77,0.0,0.0,86,0.00,,,0.00,0,weatherlink.com 1.10,2013-09-15 10:34:00,
2013-09-15 06:49:00,48.5,45.0,30.10,ENE,77,0.0,0.0,87,0.00,,,0.00,0,weatherlink.com 1.10,2013-09-15 10:49:00,
2013-09-15 07:04:00,48.5,45.0,30.10,ENE,77,0.0,0.0,86,0.00,,,0.00,0,weatherlink.com 1.10,2013-09-15 11:04:00,
2013-09-15 07:19:00,48.5,45.0,30.10,ENE,77,0.0,0.0,86,0.00,,,0.00,0,weatherlink.com 1.10,2013-09-15 11:19:00,
2013-09-15 07:34:00,48.6,45.0,30.11,ENE,77,0.0,0.0,86,0.00,,,0.00,5,weatherlink.com 1.10,2013-09-15 11:34:00,
2013-09-15 07:50:00,48.7,44.0,30.11,ENE,77,0.0,0.0,85,0.00,,,0.00,14,weatherlink.com 1.10,2013-09-15 11:50:00,
2013-09-15 08:05:00,48.8,45.0,30.12,ENE,77,0.0,0.0,86,0.00,,,0.00,25,weatherlink.com 1.10,2013-09-15 12:05:00,
2013-09-15 08:20:00,49.1,45.0,30.13,ENE,77,0.0,0.0,86,0.00,,,0.00,30,weatherlink.com 1.10,2013-09-15 12:20:00,
2013-09-15 08:35:00,49.6,47.0,30.13,ENE,77,0.0,0.0,89,0.00,,,0.00,37,weatherlink.com 1.10,2013-09-15 12:35:00,
2013-09-15 08:50:00,50.0,47.0,30.13,ENE,77,0.0,0.0,90,0.00,,,0.00,42,weatherlink.com 1.10,2013-09-15 12:50:00,
2013-09-15 09:05:00,50.5,47.0,30.13,ENE,77,0.0,0.0,88,0.00,,,0.00,56,weatherlink.com 1.10,2013-09-15 13:05:00,
2013-09-15 09:20:00,53.1,48.0,30.13,SW,222,0.0,0.0,84,0.00,,,0.00,153,weatherlink.com 1.10,2013-09-15 13:20:00,
2013-09-15 09:35:00,56.1,49.0,30.13,South,189,0.0,0.0,78,0.00,,,0.00,373,weatherlink.com 1.10,2013-09-15 13:35:00,
2013-09-15 09:50:00,58.2,51.0,30.13,WSW,239,0.0,0.0,77,0.00,,,0.00,302,weatherlink.com 1.10,2013-09-15 13:50:00,
2013-09-15 10:05:00,59.5,52.0,30.14,South,176,0.0,0.0,76,0.00,,,0.00,362,weatherlink.com 1.10,2013-09-15 14:05:00,
2013-09-15 10:20:00,61.1,52.0,30.14,South,190,0.0,0.0,72,0.00,,,0.00,520,weatherlink.com 1.10,2013-09-15 14:20:00,
2013-09-15 10:35:00,62.6,53.0,30.14,SW,223,0.0,0.0,72,0.00,,,0.00,599,weatherlink.com 1.10,2013-09-15 14:35:00,
2013-09-15 10:50:00,63.6,54.0,30.14,West,277,0.0,0.0,71,0.00,,,0.00,577,weatherlink.com 1.10,2013-09-15 14:50:00,
2013-09-15 11:05:00,64.7,55.0,30.13,South,180,0.0,0.0,70,0.00,,,0.00,617,weatherlink.com 1.10,2013-09-15 15:05:00,
2013-09-15 11:20:00,65.7,54.0,30.13,SW,236,0.0,0.0,67,0.00,,,0.00,659,weatherlink.com 1.10,2013-09-15 15:20:00,
2013-09-15 11:35:00,66.5,55.0,30.13,WNW,285,0.0,0.0,67,0.00,,,0.00,714,weatherlink.com 1.10,2013-09-15 15:35:00,
2013-09-15 11:50:00,67.7,53.0,30.12,SW,228,0.0,0.0,60,0.00,,,0.00,700,weatherlink.com 1.10,2013-09-15 15:50:00,
2013-09-15 12:05:00,68.3,54.0,30.12,South,173,0.0,0.0,61,0.00,,,0.00,814,weatherlink.com 1.10,2013-09-15 16:05:00,
2013-09-15 12:21:00,68.6,54.0,30.12,WNW,284,0.0,0.0,59,0.00,,,0.00,789,weatherlink.com 1.10,2013-09-15 16:21:00,
2013-09-15 12:36:00,68.9,54.0,30.11,West,269,0.0,0.0,60,0.00,,,0.00,800,weatherlink.com 1.10,2013-09-15 16:36:00,
2013-09-15 12:51:00,68.9,53.0,30.10,WSW,258,0.0,0.0,57,0.00,,,0.00,759,weatherlink.com 1.10,2013-09-15 16:51:00,
2013-09-15 13:06:00,69.9,55.0,30.10,SW,215,0.0,0.0,60,0.00,,,0.00,831,weatherlink.com 1.10,2013-09-15 17:06:00,
2013-09-15 13:21:00,70.5,54.0,30.09,West,275,0.0,0.0,57,0.00,,,0.00,842,weatherlink.com 1.10,2013-09-15 17:21:00,
2013-09-15 13:36:00,71.8,56.0,30.10,South,187,0.0,0.0,58,0.00,,,0.00,849,weatherlink.com 1.10,2013-09-15 17:36:00,
2013-09-15 13:51:00,71.6,54.0,30.09,SW,215,0.0,0.0,54,0.00,,,0.00,854,weatherlink.com 1.10,2013-09-15 17:51:00,
2013-09-15 14:06:00,72.4,56.0,30.09,West,261,0.0,0.0,56,0.00,,,0.00,824,weatherlink.com 1.10,2013-09-15 18:06:00,
2013-09-15 14:21:00,72.5,56.0,30.08,SSW,204,0.0,0.0,57,0.00,,,0.00,803,weatherlink.com 1.10,2013-09-15 18:21:00,
2013-09-15 14:36:00,72.7,56.0,30.06,WSW,258,0.0,0.0,57,0.00,,,0.00,710,weatherlink.com 1.10,2013-09-15 18:36:00,
2013-09-15 14:51:00,73.3,57.0,30.07,SSW,192,0.0,0.0,56,0.00,,,0.00,724,weatherlink.com 1.10,2013-09-15 18:51:00,
2013-09-15 15:06:00,72.8,55.0,30.06,SSW,211,0.0,0.0,53,0.00,,,0.00,615,weatherlink.com 1.10,2013-09-15 19:06:00,
2013-09-15 15:21:00,72.9,54.0,30.06,West,262,0.0,0.0,52,0.00,,,0.00,503,weatherlink.com 1.10,2013-09-15 19:21:00,
2013-09-15 15:36:00,73.5,54.0,30.05,WSW,258,0.0,0.0,50,0.00,,,0.00,707,weatherlink.com 1.10,2013-09-15 19:36:00,
2013-09-15 15:51:00,74.3,55.0,30.05,SE,146,0.0,0.0,52,0.00,,,0.00,661,weatherlink.com 1.10,2013-09-15 19:51:00,
2013-09-15 16:06:00,75.1,58.0,30.04,South,173,0.0,0.0,55,0.00,,,0.00,701,weatherlink.com 1.10,2013-09-15 20:06:00,
2013-09-15 16:21:00,74.6,55.0,30.04,WSW,254,0.0,0.0,50,0.00,,,0.00,605,weatherlink.com 1.10,2013-09-15 20:21:00,
2013-09-15 16:36:00,73.5,56.0,30.04,WSW,253,0.0,0.0,54,0.00,,,0.00,376,weatherlink.com 1.10,2013-09-15 20:36:00,
2013-09-15 16:51:00,73.5,56.0,30.03,West,263,0.0,0.0,54,0.00,,,0.00,339,weatherlink.com 1.10,2013-09-15 20:51:00,
2013-09-15 17:06:00,72.9,55.0,30.03,SSW,204,0.0,0.0,53,0.00,,,0.00,503,weatherlink.com 1.10,2013-09-15 21:06:00,
2013-09-15 17:21:00,73.5,56.0,30.04,WSW,255,0.0,0.0,55,0.00,,,0.00,253,weatherlink.com 1.10,2013-09-15 21:21:00,
2013-09-15 17:36:00,72.6,57.0,30.04,WSW,240,0.0,0.0,58,0.00,,,0.00,186,weatherlink.com 1.10,2013-09-15 21:36:00,
2013-09-15 17:51:00,72.1,56.0,30.04,WSW,240,0.0,0.0,58,0.00,,,0.00,244,weatherlink.com 1.10,2013-09-15 21:51:00,
2013-09-15 18:06:00,72.7,56.0,30.03,West,270,0.0,0.0,57,0.00,,,0.00,313,weatherlink.com 1.10,2013-09-15 22:06:00,
2013-09-15 18:21:00,73.4,57.0,30.03,WSW,253,0.0,0.0,56,0.00,,,0.00,239,weatherlink.com 1.10,2013-09-15 22:21:00,
2013-09-15 18:36:00,72.8,57.0,30.03,West,260,0.0,0.0,57,0.00,,,0.00,130,weatherlink.com 1.10,2013-09-15 22:36:00,
2013-09-15 18:51:00,71.5,58.0,30.04,West,260,0.0,0.0,63,0.00,,,0.00,72,weatherlink.com 1.10,2013-09-15 22:51:00,
2013-09-15 19:06:00,70.5,57.0,30.03,West,260,0.0,0.0,63,0.00,,,0.00,58,weatherlink.com 1.10,2013-09-15 23:06:00,
2013-09-15 19:21:00,70.0,57.0,30.02,SSW,199,0.0,0.0,64,0.00,,,0.00,28,weatherlink.com 1.10,2013-09-15 23:21:00,
2013-09-15 19:36:00,69.1,58.0,30.04,SSW,199,0.0,0.0,68,0.00,,,0.00,12,weatherlink.com 1.10,2013-09-15 23:36:00,
2013-09-15 19:51:00,68.0,58.0,30.03,SSW,199,0.0,0.0,70,0.00,,,0.00,0,weatherlink.com 1.10,2013-09-15 23:51:00,
2013-09-15 20:06:00,67.7,57.0,30.03,SSW,199,0.0,0.0,69,0.00,,,0.00,0,weatherlink.com 1.10,2013-09-16 00:06:00,
2013-09-15 20:21:00,67.5,58.0,30.03,SSW,199,0.0,0.0,72,0.00,,,0.00,0,weatherlink.com 1.10,2013-09-16 00:21:00,
2013-09-15 20:36:00,67.0,58.0,30.04,SSW,199,0.0,0.0,72,0.00,,,0.00,0,weatherlink.com 1.10,2013-09-16 00:36:00,
2013-09-15 20:51:00,66.7,58.0,30.04,SSW,199,0.0,0.0,73,0.00,,,0.00,0,weatherlink.com 1.10,2013-09-16 00:51:00,
2013-09-15 21:06:00,66.3,57.0,30.04,SSW,199,0.0,0.0,73,0.00,,,0.00,0,weatherlink.com 1.10,2013-09-16 01:06:00,
2013-09-15 21:21:00,65.9,57.0,30.04,SSW,199,0.0,0.0,72,0.00,,,0.00,0,weatherlink.com 1.10,2013-09-16 01:21:00,
2013-09-15 21:36:00,65.7,56.0,30.05,SSW,199,0.0,0.0,72,0.00,,,0.00,0,weatherlink.com 1.10,2013-09-16 01:36:00,
2013-09-15 21:51:00,65.7,56.0,30.05,SSW,199,0.0,0.0,72,0.00,,,0.00,0,weatherlink.com 1.10,2013-09-16 01:51:00,
2013-09-15 22:06:00,65.7,56.0,30.05,SSW,199,0.0,0.0,71,0.00,,,0.00,0,weatherlink.com 1.10,2013-09-16 02:06:00,
2013-09-15 22:21:00,66.0,56.0,30.05,SSW,199,0.0,0.0,71,0.00,,,0.00,0,weatherlink.com 1.10,2013-09-16 02:21:00,
2013-09-15 22:36:00,66.0,56.0,30.05,SSW,199,0.0,0.0,71,0.00,,,0.00,0,weatherlink.com 1.10,2013-09-16 02:36:00,
2013-09-15 22:51:00,66.1,56.0,30.05,SSW,199,0.0,0.0,71,0.00,,,0.00,0,weatherlink.com 1.10,2013-09-16 02:51:00,
2013-09-15 23:06:00,66.1,56.0,30.05,SSW,199,0.0,0.0,71,0.00,,,0.00,0,weatherlink.com 1.10,2013-09-16 03:06:00,
2013-09-15 23:21:00,66.5,56.0,30.06,SSW,204,0.0,0.0,69,0.00,,,0.00,0,weatherlink.com 1.10,2013-09-16 03:21:00,
2013-09-15 23:36:00,66.5,56.0,30.06,SSW,204,0.0,0.0,69,0.00,,,0.00,0,weatherlink.com 1.10,2013-09-16 03:36:00,
2013-09-15 23:51:00,66.5,56.0,30.05,SSW,204,0.0,0.0,70,0.00,,,0.00,0,weatherlink.com 1.10,2013-09-16 03:51:00,